IRIDIUM 115

Last updated on Fri Sep 11 2026 00:03:06 GMT+0000 (Coordinated Universal Time)

1 42806U 17039D 26253.53417105 .00000209 00000+0 56131-4 0 9994 2 42806 86.4456 286.4180 0002403 87.6400 272.5076 14.43280233486577
UTC large
Height (km)
Speed (km/s)
/
Latitude / Longitude
Inclination (degrees)
Orbital Period (minutes)
Azimuth
Elevation
Range (km)
Doppler Factor

Next 0 passes for location: London (51.5072 / 0.1276)

No passes found over London.
IRIDIUM 115